STARLINK-34652, 64772

Orbit data source: Space-Track

STARLINK-34652, 64772 is a payload satellite owned by SpaceX/Seattle (US) in LEO that was launched on Tue, 08 Jul 2025 UTC via an FALCON 9 launch vehicle from the Air Force Eastern Test Range (AFETR). Payload-class satellites include a variety of spacecraft equipped with specific instruments for various scientific and technological missions. These include communications satellites like Starlink; space stations such as the ISS; scientific satellites like the Hubble; Earth observation satellites from companies like Planet Labs, Umbra, and HawkEye 360; GPS; miniature CubeSats for education and research; and military/defense satellites.

Loading next visibility...
Identifier
64772, 2025-147T
Orbit
LEO
Country
Flag of USUS
Related business
Manufacturer
SpaceX/Seattle
Mission
Operational Commercial Communications
Bus & Motor
STARLINK V2MO, Unknown motor
Mass
575 kg wet, ~530 kg dry
Launch date (UTC)
2025-07-08 (1 year ago)
Launch vehicle
FALCON 9
Launch site
Air Force Eastern Test Range (AFETR)
Object type
Payload
Rocket body
Debris
Shape & HBR
Box + 1 Pan, 17.7 m
Radar Cross Section
41.120 m², Large (>1 m²)

Expand to show TLE details & history
Last TLE update: 1 day ago

TLE from 1 day ago
0 STARLINK-34652
1 64772U 25147T   26234.87821084  .00020563  00000-0  61788-3 0  9999
2 64772  53.1579 187.4408 0001544 108.1469 251.9702 15.34408379 64249
Epoch: 2026-08-22T21:04Z
TLE epoch observation values (Epoch: 2026-08-22T21:04:37.416Z)
Latitude
-0.00001°
Longitude
-99.89741°
Altitude
463.907 km
Speed
7.636 km/s
True Right ascension
12h 29m 45s
True Declination
0° 00' 00"
Sunlit
Object was in daylight at epoch
Visualization orbit readout
Latitude
Unknown
Longitude
Unknown
Altitude
Unknown
Speed
Unknown
Apparent Right ascension
Unknown
Apparent Declination
Unknown
Sunlit
N/A
Visualization observer readout
Local Sidereal Time
15:53:06
Azimuth
Unknown
Elevation
Unknown
Doppler factor
Unknown
Orbital elements
Apogee altitude
463.992 km
Perigee altitude
461.879 km
Semi-major axis
6,841.073 km
Eccentricity
0.00015
Inclination
53.1579°
RAAN
187.4408°
Arg. of periapsis
108.1469°
True anomaly
251.95338°
Mean anomaly
251.9702°
Eccentric anomaly
251.96179°
Mean motion
3.83581 °/min
Orbital period
93.85 mins
BSTAR
0.00061788
Loading maneuver chart data...
Computing Atmospheric mass density...
Loading historical data...
Loading historical data...
Loading historical data...
Loading historical data...
Loading historical data...
Loading historical data...
Loading historical data...

Documentation

Showing up to 5 results
|